SCP
0 0 0 0 0 0 0 0 0 0 0 0 0 0 0 0 0 0 0 0 0 0 0 0 0 0 0 0 0 0 0 0 -0 0 0 0 0 0 0 0 0 0 0
0 0 0 0 0 0 0 0 0 0 0 0 0 0 0 0 0 0 0 0 0 0 0 0 0 0 0 -0 0 0 0 0 -0 0 0 0 0 0 0 0 0 0 0
0 0 0 0 0 0 0 0 0 0 0 0 0 0 0 0 0 0 0 0 0 0 0 0 0 0 0 0 0 0 0 0 0 0 0 0 0 0 0 0 0 0 0
0 0 0 0 0 0 0 0 0 0 0 0 0 0 0 0 0 0 0 0 0 0 0 0 0 0 0 0 0 0 0 0 0 0 0 0 0 0 0 0 0 0 -0
0 0 0 0 0 0 0 0 0 0 0 0 0 0 0 0 0 0 0 0 0 0 0 0 0 0 0 0 0 0 0 0 0 0 0 0 0 -0 0 0 0 0 0
0 0 0 0 0 0 0 0 0 0 0 0 0 0 0 0 0 0 0 0 0 0 0 0 0 0 0 0 0 0 0 0 0 0 0 0 0 -0 0 0 0 0 0
0 0 0 0 0 0 0 0 0 0 0 0 0 0 0 0 0 0 0 0 0 0 0 0 0 0 0 0 0 0 0 0 0 0 0 0 0 0 0 -0 0 0 0
0 0 0 0 0 0 0 0 0 0 0 0 0 0 0 0 0 0 0 0 0 0 0 0 0 0 0 0 0 0 0 0 0 0 0 0 0 0 0 0 -0 -0 -0
0 0 0 0 0 0 0 0 0 0 0 0 0 0 0 0 0 0 0 0 0 0 0 0 0 0 0 0 0 0 0 0 0 0 0 0 0 0 -0 -0 -0 -0 -0
0 0 0 0 0 0 0 0 0 0 0 0 0 0 0 0 0 0 0 0 0 0 0 0 0 0 0 0 0 0 0 0 0 0 0 0 0 0 0 -0 0 0 -0
0 0 0 0 0 0 0 0 0 0 0 0 0 0 0 0 0 0 0 0 0 0 0 0 0 0 0 0 0 0 0 0 0 0 0 0 0 0 0 0 0 0 0
0 0 0 0 0 0 0 0 0 0 0 0 0 0 0 0 0 0 0 0 0 0 0 0 0 0 0 0 0 0 0 0 0 0 0 0 0 0 0 0 0 0 0
0 0 0 0 0 0 0 0 0 0 0 0 0 0 0 0 0 0 0 0 0 0 0 0 0 0 0 0 0 0 0 0 0 0 0 0 0 0 0 0 0 0 0
0 0 0 0 0 0 0 0 0 0 0 0 0 0 0 0 0 0 0 0 0 0 0 0 0 0 0 0 0 0 0 0 0 0 0 0 0 0 0 0 0 0 0
0 0 0 0 0 0 0 0 0 0 0 0 0 0 0 0 0 0 0 0 0 0 0 0 0 0 0 0 0 0 0 0 0 0 0 0 0 0 0 0 0 0 0
0 0 0 0 0 0 0 0 0 0 0 0 0 0 0 0 0 0 0 0 0 0 0 0 0 0 0 0 0 0 0 0 0 0 0 0 0 0 0 0 0 0 0
0 0 0 0 0 0 0 0 0 0 0 0 0 0 0 0 0 0 0 0 0 0 0 0 0 0 0 0 0 0 0 0 0 0 0 0 0 0 0 0 0 0 0
0 0 0 0 0 0 0 0 0 0 0 0 0 0 0 0 0 0 0 0 0 0 0 0 0 0 0 0 0 0 0 0 0 0 0 0 0 0 0 0 0 0 0
-0 -0 -0 -0 0 0 0 0 0 0 0 0 0 0 0 0 0 0 0 0 0 0 0 0 0 0 0 0 0 0 0 0 0 0 0 0 0 0 0 0 0 0 0
-0 -0 -0 0 0 0 0 0 0 0 0 0 0 0 0 0 0 0 0 0 0 0 0 0 0 0 0 0 0 0 0 0 0 0 0 0 0 0 0 0 0 0 0
0 0 0 0 0 0 0 0 0 0 0 0 0 0 0 0 0 0 0 0 0 0 0 0 0 0 0 0 0 0 0 0 0 0 0 0 0 0 0 0 0 0 0
0 0 0 0 0 0 0 0 0 0 0 0 0 0 0 0 0 0 0 0 0 0 0 0 0 0 0 0 0 0 0 0 0 0 0 0 0 0 0 0 0 0 0
-0 0 -0 0 0 0 0 0 0 0 0 0 0 0 0 0 0 0 0 0 0 0 0 0 0 0 0 0 0 0 0 0 0 0 0 0 0 0 0 0 0 0 0
0 0 0 0 0 0 0 0 0 0 0 0 0 0 0 0 0 0 0 0 0 0 0 0 0 0 0 0 0 0 0 0 0 0 0 0 0 0 0 0 0 0 0
0 0 0 0 0 0 0 0 0 0 0 0 0 0 0 0 0 0 0 0 0 0 0 0 0 0 0 0 0 0 0 0 0 0 0 0 0 0 0 0 0 0 0
0 0 0 0 0 0 0 0 0 0 0 0 0 0 0 0 0 0 0 0 0 0 0 0 0 0 0 0 0 0 0 0 0 0 0 0 0 0 0 0 0 0 0
Wind_Speed_500mb
48 45 55 59 62 62 59 57 58 58 55 53 47 40 32 26 22 18 14 12 8 4 4 6 8 8 15 17 19 20 16 18 35 38 39 39 43 38 33 49 49 40 37
65 52 50 63 68 66 66 64 61 61 58 52 44 38 31 28 25 22 19 17 12 7 2 3 6 9 14 17 18 20 19 18 22 28 32 34 37 33 31 35 50 47 43
77 60 59 58 70 73 73 70 66 64 58 53 50 44 40 36 35 29 23 20 16 11 4 2 5 8 13 16 17 19 18 15 13 13 10 12 16 47 42 34 44 58 70
68 67 64 61 70 70 67 70 68 65 61 56 56 50 44 37 30 24 24 23 19 14 8 5 5 7 13 15 17 19 18 17 16 19 22 19 34 43 33 48 42 39 55
54 55 68 68 63 65 65 70 70 67 61 60 57 52 45 35 28 31 30 28 24 20 13 7 7 8 12 15 16 18 18 18 21 22 27 28 30 39 69 49 56 46 49
42 49 57 64 64 67 65 67 72 69 63 62 59 54 45 40 37 36 34 32 28 24 17 10 8 12 11 15 16 19 17 16 17 21 27 39 46 57 59 76 69 72 71
31 38 52 67 70 73 68 68 72 71 67 65 60 55 48 44 38 32 33 34 32 27 20 12 8 13 10 11 15 17 18 17 17 18 21 10 26 37 54 65 78 79 71
22 32 44 62 72 76 75 71 73 71 68 66 60 56 52 47 39 32 32 31 28 26 23 16 11 13 13 13 15 18 19 19 21 13 15 13 27 53 64 75 76 74 65
19 26 41 53 64 75 79 75 73 71 69 65 58 57 55 49 41 35 33 32 32 31 26 19 13 12 13 16 17 21 19 18 19 14 22 20 32 59 60 62 57 65 59
24 23 33 44 56 65 73 73 70 65 64 61 56 56 56 49 42 38 37 38 36 34 29 23 16 13 12 17 19 22 22 19 21 22 24 26 38 49 53 51 45 40 46
22 22 27 33 42 53 64 69 68 65 64 60 58 57 57 51 46 41 38 39 37 34 32 26 19 15 13 15 17 24 27 23 25 30 28 29 42 43 46 44 36 32 41
19 21 24 29 36 42 52 63 66 64 63 60 59 57 58 55 51 45 42 42 38 36 34 30 24 19 15 15 16 24 31 30 29 33 33 31 36 41 44 32 28 27 33
21 23 23 26 31 37 46 56 59 60 61 60 58 59 62 61 54 48 45 45 43 40 38 35 29 23 18 16 15 22 31 35 34 33 37 36 37 39 40 31 18 22 38
20 20 20 22 26 32 39 46 51 53 57 60 60 62 67 63 55 50 49 48 46 43 40 37 34 28 21 19 18 21 29 36 37 39 37 39 37 36 37 32 19 17 32
18 16 15 17 21 29 35 40 45 50 56 59 62 65 66 62 57 54 51 49 48 44 40 39 37 33 27 23 24 22 26 35 36 38 40 40 38 37 35 33 27 22 20
8 2 9 14 19 23 29 36 44 50 54 58 62 66 67 64 60 56 53 51 49 47 44 43 40 36 31 26 29 26 26 29 33 38 38 39 41 41 38 35 30 25 23
4 8 16 19 18 20 24 32 39 45 53 57 62 68 69 66 61 58 55 54 52 49 47 45 42 38 34 29 31 33 28 28 30 31 34 39 37 39 39 37 33 29 25
16 14 17 17 15 17 24 26 35 43 51 57 63 68 69 67 64 62 59 56 55 53 50 47 43 40 38 35 33 37 37 31 28 29 27 30 33 36 37 34 34 33 28
32 39 31 24 21 19 20 28 35 43 52 61 67 71 72 70 68 68 64 60 57 55 51 47 45 44 41 40 39 36 43 40 34 30 30 29 28 29 32 31 31 30 27
36 40 51 51 53 44 33 38 41 46 57 65 68 70 72 72 72 69 64 61 59 55 52 49 46 42 42 42 41 40 36 43 42 39 35 33 33 33 33 33 31 28 26
40 34 38 42 35 34 34 39 47 51 55 59 66 69 72 73 71 69 68 64 61 57 54 51 49 47 45 44 44 44 42 40 44 44 42 40 36 35 37 36 35 31 25
38 42 45 41 41 40 42 49 52 48 56 59 64 71 73 74 74 74 69 67 64 62 60 58 55 52 50 48 47 47 45 44 44 42 34 33 31 29 29 34 33 32 32
27 34 45 47 54 55 52 56 52 61 62 62 64 68 73 76 77 77 76 73 70 69 66 63 60 56 53 52 49 48 47 48 46 42 42 40 38 35 30 28 28 28 29
33 33 32 35 43 50 56 53 55 58 60 62 64 67 73 77 76 78 78 78 78 76 71 66 64 59 56 53 53 50 49 47 46 46 47 43 41 39 37 33 31 29 31
55 45 46 48 46 49 49 53 53 55 56 60 66 69 72 76 78 80 79 79 76 74 70 68 63 60 58 52 46 45 43 39 38 43 48 50 46 41 37 34 36 34 32
49 48 50 55 56 55 53 51 51 58 56 59 69 73 75 78 80 82 81 78 73 69 65 57 54 50 44 40 42 42 37 37 36 40 44 47 42 42 40 40 31 31 35
Wind_Direction_500mb
256 248 237 230 227 223 220 216 214 212 213 212 214 215 215 209 212 213 222 222 214 191 63 21 63 62 102 105 87 82 76 91 90 87 68 70 71 67 55 75 67 84 129
258 245 237 228 226 222 218 215 213 213 213 217 219 220 214 208 209 213 219 216 213 211 138 43 80 79 116 117 101 88 91 96 102 98 90 81 71 81 73 93 78 96 109
256 243 233 229 223 220 217 214 213 212 213 214 213 212 211 210 211 209 215 213 207 209 194 97 115 103 122 129 114 96 96 92 101 104 90 93 102 83 95 103 97 97 108
252 244 230 226 220 220 218 216 215 213 214 213 214 215 217 217 214 211 214 211 208 204 199 142 140 132 128 140 128 110 99 90 106 104 84 105 120 111 80 100 119 116 100
252 239 223 225 223 220 217 215 214 213 215 214 215 215 215 216 213 208 211 209 207 204 197 177 154 162 145 151 142 130 113 104 99 106 109 96 115 124 109 93 93 138 115
244 236 224 218 218 218 216 213 211 214 215 214 214 214 214 212 210 209 211 207 204 206 197 191 160 169 163 159 165 149 126 120 115 125 130 119 126 134 129 110 110 103 113
227 216 210 209 212 215 214 210 210 213 214 214 214 212 210 213 215 217 216 211 207 204 198 191 168 167 179 168 163 165 144 125 117 114 151 141 157 144 136 130 119 109 106
217 213 210 209 212 213 213 208 208 212 212 213 213 211 209 210 212 215 216 214 209 203 201 196 181 173 184 178 169 156 156 138 138 114 152 152 147 148 138 134 129 116 112
231 220 210 210 212 213 213 209 208 211 211 212 211 210 209 208 208 208 208 208 205 203 201 200 193 181 187 181 183 177 164 150 150 139 149 146 152 162 147 145 145 141 128
214 201 198 205 211 215 215 211 212 214 212 212 212 211 210 206 206 207 207 205 204 202 201 201 200 189 183 178 185 187 182 162 158 151 155 156 162 161 164 160 160 162 158
203 196 194 202 213 215 215 212 211 211 213 214 212 211 207 205 204 207 207 207 204 203 200 200 202 201 187 183 189 189 191 172 165 160 161 162 176 180 177 175 175 178 171
199 197 195 200 206 211 213 211 211 212 213 214 212 211 205 204 205 204 205 204 203 202 201 201 201 206 199 206 195 193 189 180 173 168 167 169 174 182 184 184 187 190 189
191 189 195 198 204 209 211 212 214 215 213 212 212 210 204 204 203 202 202 202 201 201 201 201 204 208 209 209 198 190 186 181 175 178 174 179 181 186 193 196 201 208 208
153 170 190 204 206 210 213 214 214 214 213 211 211 209 204 203 202 201 202 202 202 203 202 201 204 206 208 201 190 182 188 183 181 181 185 194 199 202 206 212 223 214 208
136 155 182 203 210 212 213 213 213 211 209 211 211 208 204 204 203 202 202 202 204 204 202 203 203 206 209 202 191 182 184 185 188 189 191 197 203 210 215 221 227 208 211
85 144 230 228 234 228 224 215 212 212 212 211 209 205 204 206 205 204 204 203 203 203 203 203 206 208 208 202 193 186 188 191 195 196 200 206 212 212 213 223 228 241 257
262 276 274 273 266 257 242 230 222 215 213 211 206 204 205 207 207 207 207 206 205 204 204 204 206 206 208 206 197 191 192 198 200 201 207 206 211 215 219 221 229 234 234
306 315 307 300 309 270 249 233 228 221 216 212 209 208 208 209 209 210 209 208 207 207 206 205 205 206 207 208 203 201 199 197 201 207 208 212 217 219 217 218 223 227 232
296 298 302 317 313 286 260 242 228 223 219 216 212 210 210 211 210 211 210 209 209 209 208 208 208 209 209 210 210 211 205 204 204 206 206 209 209 208 211 217 227 237 242
306 299 294 293 285 280 262 244 237 229 226 220 216 213 213 213 213 213 213 211 211 211 211 210 211 214 215 215 214 217 214 211 210 210 214 216 216 219 225 234 239 242 247
290 291 297 301 293 272 267 253 244 243 240 228 222 218 216 216 215 214 214 213 212 211 211 213 213 214 217 219 220 220 221 220 216 217 221 227 231 235 232 235 240 246 244
270 266 267 269 282 285 286 275 256 261 243 232 226 222 219 217 215 215 214 213 212 212 211 212 214 215 218 219 221 223 224 223 221 223 223 223 227 234 240 232 237 240 241
282 272 266 262 265 272 271 273 274 255 243 234 227 224 221 219 218 215 213 212 211 213 213 214 216 217 218 220 222 224 225 226 225 221 214 220 223 228 231 233 239 238 245
279 282 293 292 283 276 266 264 267 259 246 235 227 223 220 218 217 216 215 214 213 213 213 216 219 220 221 223 226 228 230 228 228 223 218 219 225 227 231 232 241 252 254
271 276 285 290 298 300 277 260 258 248 243 231 226 222 218 217 215 215 216 216 219 221 219 220 222 221 222 224 225 230 231 229 224 219 216 219 222 228 233 235 244 246 249
276 279 277 279 289 293 295 257 246 245 242 230 222 219 216 213 212 212 211 214 219 223 224 227 230 228 227 226 224 221 215 218 215 216 220 222 226 227 230 236 237 246 250
Wind_Speed_850mb
48 45 55 59 62 62 59 57 58 58 55 53 47 40 32 26 22 18 14 12 8 4 4 6 8 8 15 17 19 20 16 18 35 38 39 39 43 38 33 49 49 40 37
65 52 50 63 68 66 66 64 61 61 58 52 44 38 31 28 25 22 19 17 12 7 2 3 6 9 14 17 18 20 19 18 22 28 32 34 37 33 31 35 50 47 43
77 60 59 58 70 73 73 70 66 64 58 53 50 44 40 36 35 29 23 20 16 11 4 2 5 8 13 16 17 19 18 15 13 13 10 12 16 47 42 34 44 58 70
68 67 64 61 70 70 67 70 68 65 61 56 56 50 44 37 30 24 24 23 19 14 8 5 5 7 13 15 17 19 18 17 16 19 22 19 34 43 33 48 42 39 55
54 55 68 68 63 65 65 70 70 67 61 60 57 52 45 35 28 31 30 28 24 20 13 7 7 8 12 15 16 18 18 18 21 22 27 28 30 39 69 49 56 46 49
42 49 57 64 64 67 65 67 72 69 63 62 59 54 45 40 37 36 34 32 28 24 17 10 8 12 11 15 16 19 17 16 17 21 27 39 46 57 59 76 69 72 71
31 38 52 67 70 73 68 68 72 71 67 65 60 55 48 44 38 32 33 34 32 27 20 12 8 13 10 11 15 17 18 17 17 18 21 10 26 37 54 65 78 79 71
22 32 44 62 72 76 75 71 73 71 68 66 60 56 52 47 39 32 32 31 28 26 23 16 11 13 13 13 15 18 19 19 21 13 15 13 27 53 64 75 76 74 65
19 26 41 53 64 75 79 75 73 71 69 65 58 57 55 49 41 35 33 32 32 31 26 19 13 12 13 16 17 21 19 18 19 14 22 20 32 59 60 62 57 65 59
24 23 33 44 56 65 73 73 70 65 64 61 56 56 56 49 42 38 37 38 36 34 29 23 16 13 12 17 19 22 22 19 21 22 24 26 38 49 53 51 45 40 46
22 22 27 33 42 53 64 69 68 65 64 60 58 57 57 51 46 41 38 39 37 34 32 26 19 15 13 15 17 24 27 23 25 30 28 29 42 43 46 44 36 32 41
19 21 24 29 36 42 52 63 66 64 63 60 59 57 58 55 51 45 42 42 38 36 34 30 24 19 15 15 16 24 31 30 29 33 33 31 36 41 44 32 28 27 33
21 23 23 26 31 37 46 56 59 60 61 60 58 59 62 61 54 48 45 45 43 40 38 35 29 23 18 16 15 22 31 35 34 33 37 36 37 39 40 31 18 22 38
20 20 20 22 26 32 39 46 51 53 57 60 60 62 67 63 55 50 49 48 46 43 40 37 34 28 21 19 18 21 29 36 37 39 37 39 37 36 37 32 19 17 32
18 16 15 17 21 29 35 40 45 50 56 59 62 65 66 62 57 54 51 49 48 44 40 39 37 33 27 23 24 22 26 35 36 38 40 40 38 37 35 33 27 22 20
8 2 9 14 19 23 29 36 44 50 54 58 62 66 67 64 60 56 53 51 49 47 44 43 40 36 31 26 29 26 26 29 33 38 38 39 41 41 38 35 30 25 23
4 8 16 19 18 20 24 32 39 45 53 57 62 68 69 66 61 58 55 54 52 49 47 45 42 38 34 29 31 33 28 28 30 31 34 39 37 39 39 37 33 29 25
16 14 17 17 15 17 24 26 35 43 51 57 63 68 69 67 64 62 59 56 55 53 50 47 43 40 38 35 33 37 37 31 28 29 27 30 33 36 37 34 34 33 28
32 39 31 24 21 19 20 28 35 43 52 61 67 71 72 70 68 68 64 60 57 55 51 47 45 44 41 40 39 36 43 40 34 30 30 29 28 29 32 31 31 30 27
36 40 51 51 53 44 33 38 41 46 57 65 68 70 72 72 72 69 64 61 59 55 52 49 46 42 42 42 41 40 36 43 42 39 35 33 33 33 33 33 31 28 26
40 34 38 42 35 34 34 39 47 51 55 59 66 69 72 73 71 69 68 64 61 57 54 51 49 47 45 44 44 44 42 40 44 44 42 40 36 35 37 36 35 31 25
38 42 45 41 41 40 42 49 52 48 56 59 64 71 73 74 74 74 69 67 64 62 60 58 55 52 50 48 47 47 45 44 44 42 34 33 31 29 29 34 33 32 32
27 34 45 47 54 55 52 56 52 61 62 62 64 68 73 76 77 77 76 73 70 69 66 63 60 56 53 52 49 48 47 48 46 42 42 40 38 35 30 28 28 28 29
33 33 32 35 43 50 56 53 55 58 60 62 64 67 73 77 76 78 78 78 78 76 71 66 64 59 56 53 53 50 49 47 46 46 47 43 41 39 37 33 31 29 31
55 45 46 48 46 49 49 53 53 55 56 60 66 69 72 76 78 80 79 79 76 74 70 68 63 60 58 52 46 45 43 39 38 43 48 50 46 41 37 34 36 34 32
49 48 50 55 56 55 53 51 51 58 56 59 69 73 75 78 80 82 81 78 73 69 65 57 54 50 44 40 42 42 37 37 36 40 44 47 42 42 40 40 31 31 35
Wind_Direction_850mb
256 248 237 230 227 223 220 216 214 212 213 212 214 215 215 209 212 213 222 222 214 191 63 21 63 62 102 105 87 82 76 91 90 87 68 70 71 67 55 75 67 84 129
258 245 237 228 226 222 218 215 213 213 213 217 219 220 214 208 209 213 219 216 213 211 138 43 80 79 116 117 101 88 91 96 102 98 90 81 71 81 73 93 78 96 109
256 243 233 229 223 220 217 214 213 212 213 214 213 212 211 210 211 209 215 213 207 209 194 97 115 103 122 129 114 96 96 92 101 104 90 93 102 83 95 103 97 97 108
252 244 230 226 220 220 218 216 215 213 214 213 214 215 217 217 214 211 214 211 208 204 199 142 140 132 128 140 128 110 99 90 106 104 84 105 120 111 80 100 119 116 100
252 239 223 225 223 220 217 215 214 213 215 214 215 215 215 216 213 208 211 209 207 204 197 177 154 162 145 151 142 130 113 104 99 106 109 96 115 124 109 93 93 138 115
244 236 224 218 218 218 216 213 211 214 215 214 214 214 214 212 210 209 211 207 204 206 197 191 160 169 163 159 165 149 126 120 115 125 130 119 126 134 129 110 110 103 113
227 216 210 209 212 215 214 210 210 213 214 214 214 212 210 213 215 217 216 211 207 204 198 191 168 167 179 168 163 165 144 125 117 114 151 141 157 144 136 130 119 109 106
217 213 210 209 212 213 213 208 208 212 212 213 213 211 209 210 212 215 216 214 209 203 201 196 181 173 184 178 169 156 156 138 138 114 152 152 147 148 138 134 129 116 112
231 220 210 210 212 213 213 209 208 211 211 212 211 210 209 208 208 208 208 208 205 203 201 200 193 181 187 181 183 177 164 150 150 139 149 146 152 162 147 145 145 141 128
214 201 198 205 211 215 215 211 212 214 212 212 212 211 210 206 206 207 207 205 204 202 201 201 200 189 183 178 185 187 182 162 158 151 155 156 162 161 164 160 160 162 158
203 196 194 202 213 215 215 212 211 211 213 214 212 211 207 205 204 207 207 207 204 203 200 200 202 201 187 183 189 189 191 172 165 160 161 162 176 180 177 175 175 178 171
199 197 195 200 206 211 213 211 211 212 213 214 212 211 205 204 205 204 205 204 203 202 201 201 201 206 199 206 195 193 189 180 173 168 167 169 174 182 184 184 187 190 189
191 189 195 198 204 209 211 212 214 215 213 212 212 210 204 204 203 202 202 202 201 201 201 201 204 208 209 209 198 190 186 181 175 178 174 179 181 186 193 196 201 208 208
153 170 190 204 206 210 213 214 214 214 213 211 211 209 204 203 202 201 202 202 202 203 202 201 204 206 208 201 190 182 188 183 181 181 185 194 199 202 206 212 223 214 208
136 155 182 203 210 212 213 213 213 211 209 211 211 208 204 204 203 202 202 202 204 204 202 203 203 206 209 202 191 182 184 185 188 189 191 197 203 210 215 221 227 208 211
85 144 230 228 234 228 224 215 212 212 212 211 209 205 204 206 205 204 204 203 203 203 203 203 206 208 208 202 193 186 188 191 195 196 200 206 212 212 213 223 228 241 257
262 276 274 273 266 257 242 230 222 215 213 211 206 204 205 207 207 207 207 206 205 204 204 204 206 206 208 206 197 191 192 198 200 201 207 206 211 215 219 221 229 234 234
306 315 307 300 309 270 249 233 228 221 216 212 209 208 208 209 209 210 209 208 207 207 206 205 205 206 207 208 203 201 199 197 201 207 208 212 217 219 217 218 223 227 232
296 298 302 317 313 286 260 242 228 223 219 216 212 210 210 211 210 211 210 209 209 209 208 208 208 209 209 210 210 211 205 204 204 206 206 209 209 208 211 217 227 237 242
306 299 294 293 285 280 262 244 237 229 226 220 216 213 213 213 213 213 213 211 211 211 211 210 211 214 215 215 214 217 214 211 210 210 214 216 216 219 225 234 239 242 247
290 291 297 301 293 272 267 253 244 243 240 228 222 218 216 216 215 214 214 213 212 211 211 213 213 214 217 219 220 220 221 220 216 217 221 227 231 235 232 235 240 246 244
270 266 267 269 282 285 286 275 256 261 243 232 226 222 219 217 215 215 214 213 212 212 211 212 214 215 218 219 221 223 224 223 221 223 223 223 227 234 240 232 237 240 241
282 272 266 262 265 272 271 273 274 255 243 234 227 224 221 219 218 215 213 212 211 213 213 214 216 217 218 220 222 224 225 226 225 221 214 220 223 228 231 233 239 238 245
279 282 293 292 283 276 266 264 267 259 246 235 227 223 220 218 217 216 215 214 213 213 213 216 219 220 221 223 226 228 230 228 228 223 218 219 225 227 231 232 241 252 254
271 276 285 290 298 300 277 260 258 248 243 231 226 222 218 217 215 215 216 216 219 221 219 220 222 221 222 224 225 230 231 229 224 219 216 219 222 228 233 235 244 246 249
276 279 277 279 289 293 295 257 246 245 242 230 222 219 216 213 212 212 211 214 219 223 224 227 230 228 227 226 224 221 215 218 215 216 220 222 226 227 230 236 237 246 250